When you browse on this site, cookies collect data to enhance your experience and personalize the content and advertising you see.
Visit our Privacy Policy to learn more. By continuing to use the site, you agree to this use of cookies and data.
  • In Hungary
  • List of Countries
  • For 7 days
  • Water Temperature
  • Satellite Maps
  • Weather Map
  • News
  • Weather Widgets
  • user-avatar
    Login

    Hourly Weather Morpeth

    Today, 18 February, Monday

    Time Temperature Precipitation Wind Pressure Humidity
    00:00 +7°C° 0 mm 6 mps 750 mmHg 75%
    01:00 +7°C° 0 mm 6 mps 750 mmHg 75%
    02:00 +6°C° 0 mm 7 mps 750 mmHg 76%
    03:00 +6°C° 0 mm 7 mps 749 mmHg 76%
    04:00 +6°C° 0 mm 7 mps 749 mmHg 76%
    05:00 +6°C° 0 mm 7 mps 749 mmHg 76%
    06:00 +6°C° 0 mm 7 mps 749 mmHg 75%
    07:00 +6°C° 0 mm 7 mps 749 mmHg 75%
    08:00 +6°C° 0 mm 8 mps 749 mmHg 74%
    09:00 +6°C° 0 mm 8 mps 749 mmHg 73%
    10:00 +7°C° 0 mm 9 mps 749 mmHg 68%
    11:00 +7°C° 0 mm 9 mps 749 mmHg 63%
    12:00 +7°C° 0 mm 10 mps 749 mmHg 58%
    13:00 +7°C° 0 mm 10 mps 748 mmHg 61%
    14:00 +7°C° 0 mm 10 mps 748 mmHg 63%
    15:00 +7°C° 0 mm 10 mps 748 mmHg 66%
    16:00 +6°C° 0 mm 9 mps 748 mmHg 69%
    17:00 +6°C° 0 mm 8 mps 748 mmHg 72%
    18:00 +5°C° 0 mm 7 mps 748 mmHg 74%
    19:00 +5°C° 0 mm 7 mps 748 mmHg 77%
    20:00 +5°C° 0 mm 6 mps 748 mmHg 79%
    21:00 +5°C° 0 mm 6 mps 749 mmHg 81%
    22:00 +4°C° 0 mm 6 mps 749 mmHg 82%
    23:00 +4°C° 0 mm 6 mps 750 mmHg 83%

    Tomorrow, 19 February, Tuesday

    Time Temperature Precipitation Wind Pressure Humidity
    00:00 +4°C° 0 mm 6 mps 750 mmHg 83%
    01:00 +4°C° 0 mm 6 mps 751 mmHg 84%
    02:00 +4°C° 0 mm 6 mps 751 mmHg 84%
    03:00 +4°C° 0 mm 6 mps 752 mmHg 84%
    04:00 +3°C° 0 mm 6 mps 752 mmHg 86%
    05:00 +3°C° 0 mm 5 mps 752 mmHg 87%
    06:00 +3°C° 0 mm 5 mps 752 mmHg 88%
    07:00 +3°C° 0 mm 5 mps 753 mmHg 86%
    08:00 +5°C° 0 mm 5 mps 753 mmHg 84%
    09:00 +5°C° 0 mm 5 mps 753 mmHg 82%
    10:00 +5°C° 0 mm 6 mps 753 mmHg 78%
    11:00 +7°C° 0 mm 6 mps 754 mmHg 73%
    12:00 +7°C° 0 mm 6 mps 754 mmHg 68%
    13:00 +7°C° 0 mm 6 mps 754 mmHg 67%
    14:00 +7°C° 0 mm 6 mps 753 mmHg 66%
    15:00 +7°C° 0 mm 6 mps 753 mmHg 65%
    16:00 +7°C° 0.1 mm 5 mps 753 mmHg 70%
    17:00 +6°C° 0.1 mm 5 mps 753 mmHg 74%
    18:00 +6°C° 0.1 mm 4 mps 753 mmHg 79%
    19:00 +6°C° 0.4 mm 5 mps 752 mmHg 80%
    20:00 +5°C° 0.4 mm 6 mps 752 mmHg 81%
    21:00 +5°C° 0.4 mm 6 mps 752 mmHg 82%
    22:00 +7°C° 0.3 mm 6 mps 751 mmHg 83%
    23:00 +6°C° 0.3 mm 7 mps 751 mmHg 83%

    Day after tomorrow, 20 February, Wednesday

    Time Temperature Precipitation Wind Pressure Humidity
    00:00 +6°C° 0.3 mm 7 mps 750 mmHg 83%
    01:00 +8°C° 0.4 mm 7 mps 750 mmHg 83%
    02:00 +7°C° 0.4 mm 8 mps 750 mmHg 83%
    03:00 +7°C° 0.4 mm 8 mps 749 mmHg 83%
    04:00 +9°C° 0.1 mm 8 mps 749 mmHg 83%
    05:00 +9°C° 0.1 mm 8 mps 749 mmHg 83%
    06:00 +9°C° 0.1 mm 8 mps 749 mmHg 83%
    07:00 +10°C° 0 mm 8 mps 749 mmHg 82%
    08:00 +10°C° 0 mm 8 mps 749 mmHg 81%
    09:00 +10°C° 0 mm 8 mps 749 mmHg 80%
    10:00 +10°C° 0 mm 8 mps 750 mmHg 80%
    11:00 +11°C° 0 mm 8 mps 750 mmHg 79%
    12:00 +11°C° 0 mm 9 mps 751 mmHg 78%
    13:00 +11°C° 0 mm 8 mps 751 mmHg 79%
    14:00 +11°C° 0 mm 8 mps 751 mmHg 79%
    15:00 +11°C° 0 mm 7 mps 752 mmHg 80%
    16:00 +10°C° 0 mm 6 mps 752 mmHg 82%
    17:00 +10°C° 0 mm 6 mps 752 mmHg 84%
    18:00 +10°C° 0 mm 5 mps 753 mmHg 86%
    19:00 +10°C° 0 mm 5 mps 753 mmHg 86%
    20:00 +9°C° 0 mm 5 mps 754 mmHg 87%
    21:00 +9°C° 0 mm 5 mps 754 mmHg 87%
    22:00 +9°C° 0 mm 5 mps 755 mmHg 87%
    23:00 +9°C° 0 mm 5 mps 755 mmHg 87%

    21 February, Thursday

    Time Temperature Precipitation Wind Pressure Humidity
    00:00 +9°C° 0 mm 5 mps 755 mmHg 87%
    01:00 +9°C° 0 mm 5 mps 756 mmHg 87%
    02:00 +9°C° 0 mm 5 mps 756 mmHg 86%
    03:00 +9°C° 0 mm 5 mps 756 mmHg 86%
    04:00 +9°C° 0 mm 5 mps 756 mmHg 87%
    05:00 +10°C° 0 mm 4 mps 757 mmHg 88%
    06:00 +10°C° 0 mm 4 mps 757 mmHg 89%
    07:00 +11°C° 0 mm 4 mps 758 mmHg 87%
    08:00 +10°C° 0 mm 5 mps 759 mmHg 85%
    09:00 +10°C° 0 mm 5 mps 759 mmHg 83%
    10:00 +11°C° 0 mm 6 mps 760 mmHg 80%
    11:00 +13°C° 0 mm 6 mps 760 mmHg 77%
    12:00 +14°C° 0 mm 7 mps 760 mmHg 74%
    13:00 +14°C° 0 mm 6 mps 761 mmHg 73%
    14:00 +14°C° 0 mm 6 mps 761 mmHg 73%
    15:00 +14°C° 0 mm 5 mps 761 mmHg 73%
    16:00 +13°C° 0 mm 4 mps 761 mmHg 77%
    17:00 +11°C° 0 mm 4 mps 762 mmHg 80%
    18:00 +10°C° 0 mm 3 mps 762 mmHg 84%
    19:00 +10°C° 0 mm 3 mps 763 mmHg 85%
    20:00 +8°C° 0 mm 4 mps 763 mmHg 86%
    21:00 +8°C° 0 mm 4 mps 763 mmHg 87%
    22:00 +8°C° 0 mm 4 mps 764 mmHg 88%
    23:00 +8°C° 0 mm 4 mps 764 mmHg 88%

    22 February, Friday

    Time Temperature Precipitation Wind Pressure Humidity
    00:00 +8°C° 0 mm 4 mps 764 mmHg 89%
    01:00 +8°C° 0 mm 4 mps 764 mmHg 86%
    02:00 +8°C° 0 mm 5 mps 764 mmHg 83%
    03:00 +8°C° 0 mm 5 mps 764 mmHg 80%
    04:00 +9°C° 0 mm 5 mps 764 mmHg 78%
    05:00 +9°C° 0 mm 5 mps 765 mmHg 76%
    06:00 +9°C° 0 mm 6 mps 765 mmHg 73%
    07:00 +9°C° 0 mm 6 mps 765 mmHg 71%
    08:00 +10°C° 0 mm 6 mps 765 mmHg 68%
    09:00 +10°C° 0 mm 6 mps 766 mmHg 65%
    10:00 +12°C° 0 mm 7 mps 766 mmHg 60%
    11:00 +14°C° 0 mm 7 mps 766 mmHg 56%
    12:00 +15°C° 0 mm 7 mps 766 mmHg 51%
    13:00 +15°C° 0 mm 7 mps 766 mmHg 51%
    14:00 +16°C° 0 mm 6 mps 766 mmHg 52%
    15:00 +16°C° 0 mm 6 mps 766 mmHg 52%
    16:00 +14°C° 0 mm 6 mps 766 mmHg 55%
    17:00 +13°C° 0 mm 6 mps 766 mmHg 58%
    18:00 +11°C° 0 mm 6 mps 766 mmHg 62%
    19:00 +11°C° 0 mm 6 mps 767 mmHg 63%
    20:00 +11°C° 0 mm 6 mps 767 mmHg 65%
    21:00 +10°C° 0 mm 6 mps 767 mmHg 66%
    22:00 +10°C° 0 mm 6 mps 767 mmHg 66%
    23:00 +10°C° 0 mm 6 mps 767 mmHg 65%

    23 February, Saturday

    Time Temperature Precipitation Wind Pressure Humidity
    00:00 +10°C° 0 mm 6 mps 767 mmHg 64%
    01:00 +10°C° 0 mm 5 mps 767 mmHg 64%
    02:00 +10°C° 0 mm 5 mps 767 mmHg 65%
    03:00 +9°C° 0 mm 5 mps 767 mmHg 65%
    04:00 +9°C° 0 mm 5 mps 767 mmHg 66%
    05:00 +8°C° 0 mm 4 mps 767 mmHg 68%
    06:00 +8°C° 0 mm 4 mps 767 mmHg 69%
    07:00 +8°C° 0 mm 4 mps 767 mmHg 69%
    08:00 +10°C° 0 mm 4 mps 767 mmHg 70%
    09:00 +10°C° 0 mm 4 mps 767 mmHg 70%
    10:00 +12°C° 0 mm 4 mps 767 mmHg 65%
    11:00 +13°C° 0 mm 4 mps 768 mmHg 60%
    12:00 +15°C° 0 mm 5 mps 768 mmHg 54%
    13:00 +15°C° 0 mm 4 mps 767 mmHg 54%
    14:00 +15°C° 0 mm 4 mps 767 mmHg 54%
    15:00 +15°C° 0 mm 4 mps 767 mmHg 54%
    16:00 +14°C° 0 mm 4 mps 767 mmHg 59%
    17:00 +12°C° 0 mm 3 mps 767 mmHg 64%
    18:00 +11°C° 0 mm 3 mps 767 mmHg 69%
    19:00 +10°C° 0 mm 3 mps 767 mmHg 72%
    20:00 +10°C° 0 mm 3 mps 768 mmHg 74%
    21:00 +9°C° 0 mm 3 mps 768 mmHg 76%
    22:00 +9°C° 0 mm 2 mps 768 mmHg 76%
    23:00 +9°C° 0 mm 2 mps 768 mmHg 77%
    Show more